[[{"header":{"parameterUnit":"m.s-1","parameterCategory":2,"la1":30.2991,"la2":30.254,"lo1":-89.0895,"lo2":-89.0444,"dy":0.0017,"dx":0.0017,"nx":28,"ny":28,"refTime":"2024-08-06T03:00:00:Z","depth":"0","parameterNumber":2,"parameterNumberName":"U-component_of_CURRENTS"},"data":[0,0,0,0,0,0,0,0,0,0,0,0,0,0,0,0,0,0,0,0,0,0,0,0,0,0,0,0,0,0,0,0,0,0,0,0,0,0,0,0,0,0,0,0,0,0,0,0,0,0,0,0,0,0,0,0,0,0,0.3132,0.3133,0,0.3157,0.3158,0.3158,0.3191,0.3191,0.3192,0.3192,0.3302,0.3305,0.3307,0,0,0,0,0,0,0,0,0,0,0,0,0,0.3064,0.3065,0.3132,0.3133,0.3133,0.3157,0.3158,0.3158,0.3191,0.3191,0.3192,0.3193,0.3301,0.3304,0.3307,0,0,0,0,0,0,0,0,0,0,0,0,0,0.3091,0.3066,0.3132,0.3153,0.3155,0.3157,0.3158,0.3158,0.319,0.3191,0.3192,0.3193,0.3301,0.3304,0.3307,0.3311,0,0,0.3318,0.332,0,0,0,0,0,0,0,0,0.309,0.3094,0.3149,0.3151,0.3154,0.3172,0.3174,0.3214,0.319,0.3176,0.3192,0.3193,0.3267,0.3273,0.3273,0.3316,0.3321,0.3319,0.3321,0.3322,0.3323,0,0,0,0,0,0,0,0.3088,0.3092,0.3142,0.315,0.3152,0.3144,0.3149,0.3181,0.3217,0.3177,0.318,0.3184,0.3268,0.327,0.3276,0.3323,0.3319,0.3322,0.3324,0.3325,0.3395,0.3394,0,0,0,0,0,0,0.3088,0.3091,0.3141,0.3142,0.3124,0.3145,0.3151,0.3165,0.3215,0.3223,0.3183,0.3185,0.3263,0.3272,0.3281,0.3302,0.3322,0.3326,0.3328,0.3395,0.3394,0.3394,0,0,0,0,0,0,0.3086,0.3092,0.314,0.3117,0.3123,0.3145,0.3161,0.3165,0.3166,0.3218,0.3228,0.318,0.3264,0.3276,0.3311,0.3306,0.3327,0.333,0.3395,0.3395,0.3394,0.3337,0,0,0,0,0,0,0.3085,0.3092,0.3094,0.3117,0.3124,0.3138,0.316,0.3165,0.3167,0.3171,0.3219,0.323,0.3266,0.3305,0.3314,0.3312,0.3333,0.3396,0.3395,0.3394,0.3339,0.3334,0.333,0,0,0,0,0,0.3082,0.3083,0.3094,0.31,0.3129,0.3137,0.3139,0.3158,0.3166,0.3162,0.32,0.3229,0.3308,0.3308,0.3318,0.3317,0.3396,0.3395,0.3395,0.3341,0.3335,0.333,0,0,0,0,0,0,0.3036,0.3087,0.31,0.3111,0.3122,0.3143,0.3137,0.315,0.3172,0.3178,0.3227,0.324,0.3276,0.3299,0.3297,0.3335,0.3356,0.3357,0.3311,0.3306,0.3302,0.3289,0.3336,0,0,0,0,0,0.3031,0.3051,0.3085,0.3085,0.3094,0.3113,0.3115,0.3129,0.3154,0.3163,0.3199,0.3238,0.3279,0.3294,0.3336,0.3348,0.3383,0.3354,0.3349,0.3346,0.3342,0.339,0.3389,0.3392,0.3392,0.3392,0,0,0.3002,0.3037,0.3041,0.3077,0.3086,0.3087,0.3116,0.3117,0.3116,0.3174,0.3183,0.3232,0.3283,0.3308,0.3324,0.3325,0.3363,0.3345,0.3341,0.334,0.3389,0.3389,0.3389,0.3392,0.3392,0.3392,0,0,0.2956,0.2995,0.2995,0.3013,0.3038,0.3056,0.3056,0.3081,0.3093,0.311,0.3159,0.3199,0.3245,0.3283,0.3308,0.3302,0.3349,0.3313,0.3269,0.3315,0.3316,0.3316,0.3358,0.3363,0.3298,0.3298,0.3297,0,0.2909,0.2935,0.2987,0.2994,0.3,0.3041,0.3029,0.3046,0.3076,0.3085,0.3107,0.3188,0.3234,0.327,0.3271,0.3293,0.3325,0.3284,0.331,0.3311,0.3313,0.3355,0.3362,0.3295,0.3295,0.3295,0.3296,0,0.2871,0.2889,0.2887,0.2921,0.2932,0.2929,0.2968,0.2977,0.3002,0.3024,0.3068,0.3135,0.3184,0.3201,0.3236,0.3267,0.3289,0.3309,0.3321,0.3309,0.3355,0.3362,0.3291,0.3292,0.3293,0.3293,0,0,0.2738,0.2844,0.2832,0.2851,0.2899,0.2898,0.2907,0.2926,0.293,0.2973,0.2988,0.306,0.3107,0.3139,0.3192,0.3222,0.3267,0.3261,0.3265,0.3298,0.3367,0.3303,0.3305,0.3292,0.3293,0.3294,0.3394,0,0.2674,0.2699,0.2761,0.2749,0.2759,0.2817,0.2827,0.2853,0.2886,0.2914,0.2985,0.3034,0.308,0.3117,0.3154,0.3253,0.3284,0.3238,0.3377,0.3381,0.3322,0.331,0.3106,0.317,0.3401,0.3402,0.3403,0,0.2589,0.2631,0.2632,0.2701,0.2706,0.2703,0.2729,0.2747,0.2806,0.2845,0.2899,0.297,0.3046,0.3085,0.3223,0.3193,0.3272,0.3334,0.334,0.3303,0.3329,0.3221,0.3176,0.3058,0.3415,0.3414,0.3413,0,0.246,0.2521,0.253,0.2547,0.2631,0.2628,0.2658,0.2708,0.2725,0.2802,0.2833,0.2934,0.2996,0.3107,0.3237,0.3243,0.3375,0.3407,0.3418,0.3415,0.3279,0.3262,0.313,0.349,0.3489,0.3489,0.3489,0,0.2358,0.2343,0.2476,0.2467,0.2471,0.255,0.2539,0.2591,0.2655,0.2674,0.2794,0.2832,0.3004,0.3101,0.3223,0.3332,0.3372,0.3406,0.3431,0.3252,0.3232,0.3156,0.3125,0.3493,0.3492,0.3491,0.3491,0,0.2184,0.2273,0.2289,0.2388,0.241,0.2403,0.2466,0.2469,0.2554,0.2584,0.2616,0.2759,0.2891,0.3044,0.3224,0.33,0.3315,0.3449,0.3222,0.3217,0.3108,0.3083,0.2962,0.2899,0.3485,0.3484,0.3483,0,0.2104,0.2106,0.2212,0.2225,0.2258,0.2278,0.2295,0.2394,0.2408,0.2531,0.2541,0.2676,0.276,0.299,0.312,0.3294,0.3242,0.3223,0.3193,0.3055,0.3047,0.2978,0.293,0.3001,0.2996,0.2993,0.2989,0,0.1956,0.2003,0.2036,0.2075,0.2096,0.2121,0.2156,0.2159,0.2277,0.2307,0.237,0.2449,0.2663,0.2725,0.2945,0.3053,0.3014,0.3149,0.3057,0.2687,0.2551,0.2517,0.2995,0.2954,0.2958,0.296,0.2962,0.2964,0.1849,0.1844,0.1907,0.1916,0.1945,0.1947,0.1909,0.1969,0.1972,0.1996,0.2144,0.2185,0.2337,0.2603,0.271,0.2708,0.2794,0.2659,0.2655,0.2612,0.2471,0.2868,0.2823,0.2825,0.2828,0.283,0.2832,0,0.1713,0.1721,0.1742,0.1752,0.1713,0.1784,0.1796,0.1742,0.1694,0.1771,0.1792,0.1852,0.1932,0.2115,0.2213,0.2196,0.2179,0.2162,0.1989,0.1987,0.2367,0.2262,0.2026,0.2026,0.2026,0.2026,0.2026,0.2026,0.1639,0.16,0.1612,0.1515,0.1512,0.1433,0.141,0.1379,0.1395,0.1356,0.1361,0.144,0.1638,0.1705,0.1725,0.1739,0.166,0.1566,0.1667,0.1882,0.1927,0.1969,0.1859,0.1543,0.1542,0.1166,0.1163,0.116]},{"header":{"parameterUnit":"m.s-1","parameterCategory":2,"la1":30.2991,"la2":30.254,"lo1":-89.0895,"lo2":-89.0444,"dy":0.0017,"dx":0.0017,"nx":28,"ny":28,"refTime":"2024-08-06T03:00:00:Z","depth":"0","parameterNumber":3,"parameterNumberName":"V-component_of_CURRENTS"},"data":[0,0,0,0,0,0,0,0,0,0,0,0,0,0,0,0,0,0,0,0,0,0,0,0,0,0,0,0,0,0,0,0,0,0,0,0,0,0,0,0,0,0,0,0,0,0,0,0,0,0,0,0,0,0,0,0,0,0,-0.0273,-0.0273,0,-0.0251,-0.0251,-0.0251,-0.0235,-0.0236,-0.0236,-0.0236,-0.0261,-0.0261,-0.0262,0,0,0,0,0,0,0,0,0,0,0,0,0,-0.0233,-0.0234,-0.0273,-0.0273,-0.0273,-0.0251,-0.0251,-0.025,-0.0235,-0.0236,-0.0236,-0.0236,-0.026,-0.0261,-0.0262,0,0,0,0,0,0,0,0,0,0,0,0,0,-0.0233,-0.0234,-0.0273,-0.0264,-0.0263,-0.0251,-0.0251,-0.025,-0.0235,-0.0236,-0.0236,-0.0236,-0.026,-0.0261,-0.0262,-0.0268,0,0,-0.0265,-0.0265,0,0,0,0,0,0,0,0,-0.0233,-0.0235,-0.0265,-0.0264,-0.0263,-0.0247,-0.0246,-0.0259,-0.0235,-0.0244,-0.0236,-0.0236,-0.0261,-0.0262,-0.0255,-0.0269,-0.027,-0.0265,-0.0266,-0.0266,-0.0266,0,0,0,0,0,0,0,-0.0233,-0.0235,-0.0263,-0.0265,-0.0264,-0.0237,-0.0238,-0.0248,-0.0253,-0.0244,-0.0243,-0.0243,-0.0261,-0.0254,-0.0256,-0.027,-0.0265,-0.0266,-0.0267,-0.0267,-0.0279,-0.0279,0,0,0,0,0,0,-0.0243,-0.0236,-0.0264,-0.0262,-0.025,-0.0238,-0.0239,-0.0251,-0.0252,-0.0252,-0.0243,-0.0242,-0.0253,-0.0255,-0.0257,-0.026,-0.0266,-0.0267,-0.0268,-0.0279,-0.0279,-0.0278,0,0,0,0,0,0,-0.0242,-0.0246,-0.0264,-0.0249,-0.0249,-0.024,-0.0253,-0.0251,-0.0244,-0.0251,-0.0251,-0.0239,-0.0253,-0.0256,-0.0258,-0.0261,-0.0267,-0.0268,-0.0279,-0.0279,-0.0279,-0.0268,0,0,0,0,0,0,-0.0242,-0.0246,-0.0252,-0.025,-0.0251,-0.0257,-0.0253,-0.025,-0.0245,-0.0244,-0.0248,-0.025,-0.0253,-0.0257,-0.0259,-0.0262,-0.0269,-0.028,-0.0279,-0.0279,-0.0269,-0.0267,-0.0266,0,0,0,0,0,-0.024,-0.0246,-0.0252,-0.0255,-0.0261,-0.0257,-0.0255,-0.0246,-0.0245,-0.024,-0.0239,-0.025,-0.0255,-0.0257,-0.026,-0.0264,-0.028,-0.0279,-0.0279,-0.0269,-0.0267,-0.0266,0,0,0,0,0,0,-0.0216,-0.0245,-0.0252,-0.0263,-0.0262,-0.0255,-0.0248,-0.0247,-0.0241,-0.0241,-0.0246,-0.0248,-0.0251,-0.0257,-0.0259,-0.0264,-0.027,-0.027,-0.0262,-0.026,-0.0259,-0.026,-0.027,0,0,0,0,0,-0.022,-0.0238,-0.0251,-0.0254,-0.0259,-0.0255,-0.025,-0.0248,-0.0246,-0.0242,-0.0246,-0.0249,-0.0251,-0.0255,-0.0258,-0.0263,-0.0268,-0.0267,-0.0266,-0.0264,-0.0267,-0.0278,-0.0278,-0.0276,-0.0276,-0.0276,0,0,-0.0202,-0.0226,-0.0229,-0.0251,-0.0249,-0.0249,-0.0252,-0.0247,-0.0242,-0.0248,-0.0241,-0.0247,-0.025,-0.0251,-0.0254,-0.0257,-0.0264,-0.0264,-0.0263,-0.0266,-0.0277,-0.0278,-0.0278,-0.0276,-0.0276,-0.0276,0,0,-0.0181,-0.0208,-0.0216,-0.0226,-0.0237,-0.0239,-0.0241,-0.0242,-0.0239,-0.0236,-0.0238,-0.0244,-0.0246,-0.025,-0.0252,-0.0247,-0.0256,-0.0248,-0.0245,-0.0255,-0.0255,-0.0256,-0.0249,-0.0249,-0.0248,-0.0248,-0.0248,0,-0.0155,-0.0181,-0.021,-0.0222,-0.0224,-0.0237,-0.0233,-0.0233,-0.0231,-0.0229,-0.0233,-0.0237,-0.0246,-0.0246,-0.0243,-0.0246,-0.0245,-0.0251,-0.0254,-0.0255,-0.0255,-0.0248,-0.0248,-0.0247,-0.0247,-0.0247,-0.0247,0,-0.0146,-0.0164,-0.0167,-0.0194,-0.0198,-0.0198,-0.0211,-0.0211,-0.0214,-0.0215,-0.0218,-0.0229,-0.0231,-0.0236,-0.0239,-0.0247,-0.0241,-0.0251,-0.0259,-0.0255,-0.0247,-0.0248,-0.0246,-0.0247,-0.0247,-0.0247,0,0,-0.0082,-0.0148,-0.0146,-0.0158,-0.0188,-0.0185,-0.0187,-0.0189,-0.0179,-0.0196,-0.0182,-0.0204,-0.0216,-0.0218,-0.0228,-0.0242,-0.0246,-0.0248,-0.0249,-0.0243,-0.0254,-0.0235,-0.0233,-0.0256,-0.0256,-0.0256,-0.0242,0,-0.0057,-0.0083,-0.0119,-0.0118,-0.0128,-0.0153,-0.015,-0.0156,-0.0157,-0.0148,-0.0175,-0.0167,-0.0206,-0.02,-0.0226,-0.023,-0.0249,-0.0248,-0.0257,-0.0257,-0.0243,-0.0234,-0.0188,-0.017,-0.0242,-0.0242,-0.0242,0,-0.0021,-0.0055,-0.0062,-0.0095,-0.0098,-0.0095,-0.0092,-0.0092,-0.0097,-0.0102,-0.0117,-0.0126,-0.0145,-0.0176,-0.0213,-0.0208,-0.0236,-0.0252,-0.0252,-0.024,-0.024,-0.0189,-0.0168,-0.0217,-0.0243,-0.0243,-0.0243,0,0.0046,0.0001,-0.0007,-0.002,-0.0063,-0.0058,-0.0065,-0.0071,-0.0055,-0.0064,-0.0045,-0.0086,-0.0078,-0.0133,-0.0169,-0.0188,-0.0198,-0.0227,-0.0242,-0.024,-0.0206,-0.0201,-0.0237,-0.0267,-0.0268,-0.0268,-0.0268,0,0.0094,0.0095,0.0021,0.0018,0.0024,-0.0015,0.0014,-0.0002,0.0004,0.0036,-0.0014,0.0013,-0.0068,-0.0078,-0.0141,-0.0177,-0.0179,-0.0238,-0.0237,-0.0199,-0.0193,-0.024,-0.0263,-0.0267,-0.0267,-0.0267,-0.0267,0,0.0189,0.0134,0.0124,0.0068,0.0057,0.0071,0.0067,0.0094,0.0078,0.0126,0.013,0.0103,0.0083,0.0015,-0.0048,-0.0118,-0.0173,-0.0186,-0.0125,-0.0119,-0.0194,-0.0218,-0.0235,-0.0231,-0.0204,-0.0204,-0.0203,0,0.0231,0.0229,0.0177,0.0176,0.0157,0.0159,0.0171,0.0141,0.0173,0.019,0.0227,0.0219,0.0226,0.0143,0.0035,-0.0058,-0.0125,-0.0101,-0.0148,-0.0188,-0.0215,-0.0233,-0.023,-0.0091,-0.009,-0.0089,-0.0088,0,0.0309,0.0293,0.0281,0.0276,0.0281,0.0282,0.0294,0.0322,0.0307,0.0343,0.0385,0.0394,0.0323,0.0257,0.0124,0.0044,-0.0101,-0.0083,-0.0143,-0.0144,-0.0147,-0.0145,-0.0103,-0.0078,-0.0079,-0.008,-0.0081,-0.0081,0.0376,0.0389,0.0371,0.0378,0.0387,0.0402,0.0421,0.0441,0.0484,0.0523,0.0515,0.0541,0.0434,0.0265,0.0163,-0.0008,-0.0029,-0.0083,-0.011,-0.0127,-0.0122,-0.0053,-0.0021,-0.0022,-0.0022,-0.0023,-0.0023,0,0.0428,0.0441,0.0467,0.0466,0.0502,0.0475,0.0502,0.0524,0.0581,0.0618,0.0648,0.0632,0.0499,0.0335,0.0113,-0.0016,-0.0061,-0.0094,-0.0118,-0.0117,-0.0068,-0.0063,-0.0016,-0.0016,-0.0016,-0.0016,-0.0016,-0.0016,0.0451,0.0483,0.0493,0.0554,0.0569,0.0594,0.0605,0.0644,0.0675,0.073,0.0755,0.0758,0.0673,0.0269,-0.0001,-0.0072,-0.0147,-0.0153,-0.0208,-0.0193,-0.0194,-0.0196,-0.0199,-0.0182,-0.0182,-0.0224,-0.0225,-0.0226]}],[{"header":{"parameterUnit":"m.s-1","parameterCategory":2,"la1":30.2991,"la2":30.254,"lo1":-89.0895,"lo2":-89.0444,"dy":0.0017,"dx":0.0017,"nx":28,"ny":28,"refTime":"2024-08-06T03:00:00:Z","depth":"2","parameterNumber":2,"parameterNumberName":"U-component_of_CURRENTS"},"data":[0,0,0,0,0,0,0,0,0,0,0,0,0,0,0,0,0,0,0,0,0,0,0,0,0,0,0,0,0,0,0,0,0,0,0,0,0,0,0,0,0,0,0,0,0,0,0,0,0,0,0,0,0,0,0,0,0,0,0.2133,0.2133,0,0.2104,0.2104,0.2103,0.2127,0.2128,0.213,0.2131,0.202,0.2016,0.2012,0,0,0,0,0,0,0,0,0,0,0,0,0,0.218,0.2179,0.2133,0.2133,0.2132,0.2104,0.2104,0.2103,0.2127,0.2128,0.213,0.2131,0.2021,0.2016,0.2011,0,0,0,0,0,0,0,0,0,0,0,0,0,0.2154,0.2179,0.2133,0.2143,0.2144,0.2104,0.2103,0.2103,0.2126,0.2128,0.213,0.2132,0.2023,0.2017,0.2011,0.1935,0,0,0.1992,0.1989,0,0,0,0,0,0,0,0,0.2155,0.2152,0.2142,0.2142,0.2143,0.2123,0.208,0.2043,0.2126,0.213,0.2131,0.2133,0.2047,0.2039,0.2027,0.193,0.1925,0.1991,0.1988,0.1985,0.1983,0,0,0,0,0,0,0,0.2157,0.2153,0.2119,0.2141,0.2142,0.214,0.2138,0.2073,0.2075,0.213,0.2132,0.2133,0.2047,0.2033,0.2024,0.1924,0.1992,0.1986,0.1982,0.198,0.1923,0.1925,0,0,0,0,0,0,0.2165,0.2154,0.212,0.2118,0.2157,0.2138,0.2136,0.2126,0.2077,0.2073,0.2131,0.2134,0.2043,0.2032,0.202,0.2035,0.1985,0.1979,0.1976,0.1921,0.1923,0.1926,0,0,0,0,0,0,0.2166,0.2162,0.2121,0.2139,0.2134,0.2135,0.2124,0.2124,0.2146,0.208,0.2074,0.2158,0.2044,0.2029,0.1985,0.2027,0.1976,0.1971,0.1918,0.1921,0.1925,0.1994,0,0,0,0,0,0,0.2167,0.2162,0.2158,0.2139,0.2133,0.2118,0.2122,0.2122,0.2143,0.2147,0.2099,0.209,0.2044,0.1995,0.1979,0.2017,0.1966,0.1915,0.192,0.1923,0.1989,0.1999,0.2008,0,0,0,0,0,0.2169,0.2154,0.2158,0.2154,0.2127,0.2118,0.2115,0.2121,0.2143,0.2149,0.2118,0.2093,0.2013,0.1989,0.1971,0.2008,0.1913,0.1918,0.1923,0.1984,0.1997,0.2008,0,0,0,0,0,0,0.2168,0.2155,0.2159,0.214,0.2142,0.2124,0.2127,0.2139,0.2121,0.2128,0.2079,0.2065,0.2063,0.202,0.1997,0.2013,0.1975,0.1976,0.2028,0.2039,0.2049,0.2055,0.1961,0,0,0,0,0,0.2166,0.2143,0.215,0.2126,0.2142,0.2143,0.2144,0.2152,0.2133,0.2131,0.2111,0.2087,0.2061,0.2037,0.2012,0.1978,0.1986,0.2008,0.2018,0.2025,0.2024,0.2065,0.2078,0.1942,0.1942,0.1942,0,0,0.2143,0.214,0.212,0.2123,0.2127,0.2135,0.2149,0.2158,0.2159,0.2114,0.212,0.2116,0.2065,0.2054,0.2051,0.2021,0.2078,0.2032,0.2038,0.2032,0.2071,0.2084,0.2096,0.1945,0.1945,0.1944,0,0,0.2107,0.2109,0.2099,0.2115,0.2138,0.2133,0.2151,0.2171,0.2186,0.2176,0.2171,0.2185,0.2134,0.212,0.2097,0.2137,0.2138,0.2158,0.2186,0.2227,0.2238,0.2248,0.2311,0.2326,0.2149,0.2149,0.2149,0,0.2088,0.2075,0.2093,0.2115,0.212,0.2144,0.2153,0.2159,0.2162,0.2175,0.2191,0.2194,0.2164,0.2148,0.218,0.2157,0.2192,0.2139,0.2238,0.2248,0.2256,0.2319,0.2334,0.2153,0.2152,0.2152,0.2152,0,0.206,0.2064,0.2067,0.2087,0.2104,0.2104,0.2137,0.2161,0.2192,0.2208,0.2247,0.223,0.2234,0.2252,0.2216,0.2274,0.2286,0.2256,0.2204,0.2274,0.2336,0.2351,0.2158,0.2157,0.2156,0.2155,0,0,0.1958,0.2028,0.2027,0.2053,0.2092,0.21,0.2118,0.2138,0.2165,0.221,0.2251,0.2255,0.2301,0.2281,0.228,0.2317,0.2426,0.232,0.2321,0.2376,0.2551,0.2383,0.2383,0.2419,0.2422,0.2423,0.2582,0,0.1922,0.1956,0.1992,0.2005,0.2032,0.2073,0.2089,0.2124,0.2159,0.2211,0.2248,0.2293,0.2292,0.2327,0.2362,0.2413,0.2463,0.2387,0.2481,0.2484,0.2319,0.2392,0.2118,0.2219,0.2596,0.2598,0.26,0,0.1871,0.191,0.1928,0.1995,0.2012,0.2025,0.2069,0.2088,0.216,0.221,0.2272,0.2318,0.2394,0.2389,0.2508,0.2468,0.2519,0.2558,0.2564,0.2384,0.234,0.2205,0.2231,0.2624,0.2622,0.262,0.2619,0,0.179,0.1852,0.1859,0.188,0.1963,0.1986,0.2025,0.2094,0.2113,0.2231,0.2279,0.2373,0.2427,0.2518,0.2601,0.2578,0.2736,0.2701,0.2601,0.2592,0.2359,0.2322,0.2786,0.2786,0.2786,0.2785,0.2785,0,0.1721,0.172,0.1833,0.1845,0.1882,0.1959,0.199,0.206,0.2127,0.216,0.2283,0.2317,0.2465,0.2556,0.2638,0.2664,0.2767,0.262,0.2614,0.2377,0.2343,0.2677,0.2662,0.2791,0.279,0.2789,0.2788,0,0.1607,0.1663,0.1698,0.181,0.1847,0.188,0.1969,0.1982,0.2083,0.213,0.2179,0.2297,0.2415,0.2548,0.2698,0.2672,0.2749,0.2731,0.2454,0.2408,0.2579,0.2567,0.2638,0.2633,0.2629,0.2626,0.2623,0,0.1538,0.1552,0.1679,0.1705,0.1752,0.1816,0.1849,0.1957,0.1972,0.2092,0.2102,0.2233,0.2265,0.2423,0.2439,0.254,0.2673,0.2338,0.22,0.2573,0.2562,0.2556,0.2549,0.1966,0.1958,0.1951,0.1946,0,0.144,0.1491,0.1541,0.161,0.1655,0.1697,0.1763,0.1768,0.1875,0.1903,0.1948,0.1985,0.2084,0.2011,0.2111,0.2134,0.2295,0.2198,0.2688,0.2006,0.194,0.1928,0.1944,0.1888,0.1894,0.1898,0.1901,0.1903,0.1366,0.1375,0.1452,0.1493,0.1539,0.1552,0.154,0.1587,0.1582,0.1594,0.1708,0.1686,0.1715,0.167,0.1701,0.1748,0.1883,0.1823,0.1844,0.1872,0.1726,0.1651,0.1522,0.1525,0.1529,0.1531,0.1534,0,0.1281,0.1286,0.1322,0.1354,0.1335,0.1419,0.1437,0.1386,0.1325,0.1376,0.1363,0.1228,0.1145,0.1278,0.1203,0.1215,0.1239,0.122,0.1221,0.1273,0.1322,0.1151,0.0794,0.0794,0.0793,0.0792,0,0,0.1227,0.1201,0.1208,0.1138,0.1152,0.1094,0.1079,0.1043,0.1042,0.0977,0.0945,0.0979,0.1093,0.088,0.0871,0.0826,0.1057,0.0799,0.1364,0.1407,0.1455,0.1614,0.14,0,0,0,0,0]},{"header":{"parameterUnit":"m.s-1","parameterCategory":2,"la1":30.2991,"la2":30.254,"lo1":-89.0895,"lo2":-89.0444,"dy":0.0017,"dx":0.0017,"nx":28,"ny":28,"refTime":"2024-08-06T03:00:00:Z","depth":"2","parameterNumber":3,"parameterNumberName":"V-component_of_CURRENTS"},"data":[0,0,0,0,0,0,0,0,0,0,0,0,0,0,0,0,0,0,0,0,0,0,0,0,0,0,0,0,0,0,0,0,0,0,0,0,0,0,0,0,0,0,0,0,0,0,0,0,0,0,0,0,0,0,0,0,0,0,0.0107,0.0108,0,0.013,0.013,0.0131,0.012,0.0119,0.0119,0.0118,0.0096,0.0096,0.0096,0,0,0,0,0,0,0,0,0,0,0,0,0,0.0081,0.0081,0.0107,0.0108,0.0108,0.013,0.013,0.0131,0.012,0.0119,0.0118,0.0118,0.0096,0.0096,0.0096,0,0,0,0,0,0,0,0,0,0,0,0,0,0.0098,0.0082,0.0107,0.0104,0.0104,0.013,0.013,0.0131,0.012,0.0119,0.0118,0.0117,0.0096,0.0096,0.0097,0.0118,0,0,0.0097,0.0097,0,0,0,0,0,0,0,0,0.0097,0.0099,0.0104,0.0104,0.0104,0.012,0.0113,0.0124,0.012,0.0115,0.0118,0.0117,0.01,0.01,0.0109,0.0117,0.0116,0.0097,0.0097,0.0097,0.0097,0,0,0,0,0,0,0,0.0096,0.0098,0.0118,0.0105,0.0105,0.011,0.0112,0.0116,0.0113,0.0116,0.0115,0.0116,0.01,0.0109,0.0108,0.0116,0.0097,0.0097,0.0097,0.0097,0.012,0.0121,0,0,0,0,0,0,0.009,0.0097,0.0117,0.0118,0.0097,0.0112,0.0113,0.0117,0.0114,0.0113,0.0116,0.0115,0.0109,0.0108,0.0107,0.0115,0.0097,0.0097,0.0097,0.012,0.012,0.0121,0,0,0,0,0,0,0.009,0.0092,0.0116,0.0107,0.011,0.0113,0.0118,0.0118,0.0107,0.0115,0.0113,0.0102,0.0108,0.0107,0.0129,0.0114,0.0097,0.0097,0.0119,0.012,0.0121,0.0141,0,0,0,0,0,0,0.0089,0.0092,0.0091,0.0107,0.011,0.0127,0.0119,0.0119,0.0109,0.0107,0.0102,0.0101,0.0107,0.0129,0.0129,0.0114,0.0097,0.0118,0.012,0.012,0.0139,0.0142,0.0145,0,0,0,0,0,0.0088,0.0091,0.0091,0.0093,0.011,0.0128,0.013,0.013,0.0109,0.0113,0.0127,0.01,0.0134,0.0131,0.0131,0.0115,0.0118,0.0119,0.012,0.0138,0.0142,0.0144,0,0,0,0,0,0,0.009,0.0091,0.009,0.0097,0.0109,0.0125,0.0124,0.0119,0.0131,0.0124,0.0124,0.0125,0.0134,0.0129,0.0125,0.0125,0.0114,0.0115,0.0128,0.0131,0.0133,0.0125,0.0097,0,0,0,0,0,0.0088,0.0091,0.0096,0.0109,0.0103,0.0108,0.0111,0.0113,0.0126,0.0128,0.012,0.0123,0.0143,0.0141,0.0152,0.0159,0.0144,0.0143,0.0146,0.0148,0.0142,0.0143,0.0145,0.0125,0.0125,0.0125,0,0,0.0096,0.0098,0.0101,0.0109,0.0112,0.0118,0.0107,0.0111,0.0123,0.0125,0.0125,0.0132,0.0149,0.0166,0.0166,0.0156,0.0143,0.015,0.0152,0.0144,0.0144,0.0146,0.0148,0.0126,0.0126,0.0126,0,0,0.0112,0.0108,0.0105,0.0105,0.0106,0.0121,0.0114,0.0113,0.0112,0.0126,0.0136,0.015,0.0146,0.0176,0.0188,0.0211,0.0161,0.0185,0.0185,0.0187,0.0188,0.0189,0.0157,0.0155,0.0181,0.0181,0.0181,0,0.012,0.0121,0.0112,0.0104,0.0109,0.0115,0.0118,0.0129,0.0139,0.0142,0.0123,0.0148,0.0158,0.0206,0.021,0.0216,0.0187,0.0174,0.019,0.019,0.0191,0.0158,0.0156,0.0182,0.0182,0.0182,0.0182,0,0.0128,0.0123,0.0121,0.0119,0.0123,0.0134,0.014,0.0145,0.0135,0.0138,0.0154,0.0184,0.0189,0.0196,0.0207,0.0219,0.0186,0.0197,0.018,0.0194,0.0159,0.0156,0.0184,0.0183,0.0183,0.0183,0,0,0.0168,0.0134,0.0134,0.013,0.013,0.0143,0.0158,0.0179,0.0179,0.0181,0.0181,0.0223,0.0201,0.0215,0.0229,0.0235,0.0216,0.0202,0.0202,0.0166,0.0176,0.0182,0.0179,0.0216,0.0216,0.0216,0.0143,0,0.0184,0.017,0.0156,0.0167,0.0159,0.0166,0.0173,0.0188,0.0193,0.0191,0.0219,0.0221,0.022,0.0213,0.022,0.0221,0.021,0.0232,0.0171,0.0169,0.017,0.0178,0.0164,0.0101,0.014,0.014,0.0139,0,0.0202,0.0186,0.0184,0.0172,0.0168,0.0177,0.0196,0.0207,0.0213,0.0198,0.0204,0.0202,0.0219,0.0212,0.0204,0.0205,0.0178,0.018,0.0178,0.0174,0.0171,0.0097,0.0094,0.0134,0.0135,0.0135,0.0135,0,0.0238,0.0219,0.0224,0.0219,0.0199,0.0201,0.0202,0.0201,0.0224,0.0201,0.0208,0.0195,0.0213,0.0177,0.0166,0.0163,0.015,0.0153,0.0137,0.0135,0.011,0.0107,0.0139,0.0139,0.0139,0.014,0.014,0,0.0269,0.0276,0.0234,0.023,0.0227,0.0205,0.0218,0.0204,0.0216,0.0246,0.0208,0.025,0.0204,0.0199,0.0153,0.0132,0.0132,0.0131,0.0125,0.0115,0.0114,0.0137,0.0138,0.0137,0.0137,0.0138,0.0138,0,0.0318,0.0293,0.0292,0.0254,0.024,0.0239,0.0241,0.0267,0.0247,0.0294,0.029,0.0295,0.0266,0.022,0.0175,0.0145,0.0106,0.01,0.0075,0.0068,0.0082,0.0085,0.0053,0.0053,0.0053,0.0052,0.0052,0,0.0342,0.0341,0.0309,0.0311,0.0295,0.0287,0.0294,0.0276,0.0315,0.0346,0.0387,0.0371,0.0373,0.0293,0.0206,0.0101,0.0113,0.0043,0.006,0.008,0.0077,0.008,0.0083,0.0016,0.0015,0.0015,0.0014,0,0.0381,0.0375,0.0375,0.0365,0.0369,0.0381,0.0388,0.0419,0.0423,0.0458,0.0504,0.0502,0.0421,0.0319,0.0183,0.0124,0.0049,0.0035,0.0063,0.0056,0.0044,0.0041,0.0045,0.0011,0.0012,0.0012,0.0012,0.0012,0.042,0.0432,0.0429,0.0431,0.0449,0.0472,0.0479,0.0514,0.0556,0.0583,0.0586,0.0567,0.0442,0.0265,0.0155,0.0042,0.0056,0.001,0.0011,0.0012,0.0037,0.0028,-0.0006,-0.0006,-0.0006,-0.0006,-0.0005,0,0.0442,0.0464,0.049,0.0494,0.0536,0.0518,0.0552,0.0567,0.0609,0.0624,0.0628,0.0517,0.0394,0.0264,0.0092,-0.0004,-0.0014,-0.0033,-0.0035,-0.0032,-0.0029,-0.0005,-0.006,-0.006,-0.0061,-0.0061,0,0,0.0454,0.0486,0.0501,0.0559,0.0578,0.0603,0.0613,0.0638,0.0648,0.0652,0.0626,0.0562,0.0417,0.0278,0.0131,0.0038,0.0033,0.0023,0.0073,0.009,0.0094,-0.0003,0.0037,0,0,0,0,0]}],[{"header":{"parameterUnit":"m.s-1","parameterCategory":2,"la1":30.2991,"la2":30.254,"lo1":-89.0895,"lo2":-89.0444,"dy":0.0017,"dx":0.0017,"nx":28,"ny":28,"refTime":"2024-08-06T03:00:00:Z","depth":"4","parameterNumber":2,"parameterNumberName":"U-component_of_CURRENTS"},"data":[0,0,0,0,0,0,0,0,0,0,0,0,0,0,0,0,0,0,0,0,0,0,0,0,0,0,0,0,0,0,0,0,0,0,0,0,0,0,0,0,0,0,0,0,0,0,0,0,0,0,0,0,0,0,0,0,0,0,-0.0428,-0.0429,0,-0.0449,-0.0449,-0.0449,-0.0403,-0.0402,-0.04,-0.0399,-0.0397,-0.0398,-0.0399,0,0,0,0,0,0,0,0,0,0,0,0,0,-0.0371,-0.0372,-0.0428,-0.0429,-0.0429,-0.0449,-0.0449,-0.0449,-0.0404,-0.0402,-0.04,-0.0399,-0.0396,-0.0398,-0.0399,0,0,0,0,0,0,0,0,0,0,0,0,0,-0.0393,-0.0372,-0.0428,-0.0409,-0.0408,-0.0449,-0.0449,-0.0449,-0.0404,-0.0402,-0.04,-0.0398,-0.0396,-0.0398,-0.04,-0.0453,0,0,-0.0405,-0.0406,0,0,0,0,0,0,0,0,-0.0392,-0.0395,-0.0412,-0.0411,-0.0409,-0.0422,-0.0428,-0.045,-0.0404,-0.0404,-0.0399,-0.0397,-0.0405,-0.0406,-0.0414,-0.0453,-0.0452,-0.0405,-0.0406,-0.0407,-0.0408,0,0,0,0,0,0,0,-0.0391,-0.0394,-0.0436,-0.0412,-0.0411,-0.0407,-0.0408,-0.0432,-0.0415,-0.0404,-0.0401,-0.0406,-0.0404,-0.0412,-0.0413,-0.0452,-0.0405,-0.0407,-0.0408,-0.0409,-0.0469,-0.047,0,0,0,0,0,0,-0.0391,-0.0393,-0.0435,-0.0436,-0.0396,-0.041,-0.041,-0.0419,-0.0415,-0.0413,-0.0407,-0.0403,-0.041,-0.0411,-0.0413,-0.0388,-0.0407,-0.0409,-0.041,-0.0469,-0.0469,-0.047,0,0,0,0,0,0,-0.039,-0.0395,-0.0434,-0.0415,-0.042,-0.0413,-0.0423,-0.0421,-0.0386,-0.0418,-0.0415,-0.037,-0.0408,-0.041,-0.0405,-0.039,-0.041,-0.0412,-0.0468,-0.0469,-0.0469,-0.0393,0,0,0,0,0,0,-0.0389,-0.0395,-0.0399,-0.0416,-0.0421,-0.0437,-0.0426,-0.0423,-0.0395,-0.0389,-0.0386,-0.0386,-0.0407,-0.0402,-0.0407,-0.0393,-0.0413,-0.0467,-0.0468,-0.0469,-0.0395,-0.0391,-0.0388,0,0,0,0,0,-0.0387,-0.0401,-0.0399,-0.0404,-0.0428,-0.0437,-0.0438,-0.0426,-0.0395,-0.0384,-0.0378,-0.0384,-0.0412,-0.0404,-0.0409,-0.0396,-0.0467,-0.0468,-0.0469,-0.0397,-0.0392,-0.0388,0,0,0,0,0,0,-0.0394,-0.0398,-0.0396,-0.0416,-0.0416,-0.0428,-0.0423,-0.0404,-0.0392,-0.0368,-0.0386,-0.0387,-0.0383,-0.0406,-0.0397,-0.0421,-0.0443,-0.0445,-0.0386,-0.0382,-0.0378,-0.036,-0.0415,0,0,0,0,0,-0.0397,-0.0397,-0.0406,-0.0421,-0.0414,-0.0408,-0.0406,-0.0386,-0.0382,-0.0371,-0.0363,-0.0372,-0.0403,-0.0399,-0.0427,-0.0432,-0.0473,-0.0432,-0.0428,-0.0425,-0.0417,-0.0498,-0.05,-0.0473,-0.0473,-0.0473,0,0,-0.041,-0.041,-0.0414,-0.042,-0.0416,-0.0405,-0.0399,-0.0376,-0.0361,-0.0377,-0.0338,-0.0355,-0.0404,-0.0413,-0.0413,-0.0419,-0.0449,-0.0426,-0.0423,-0.0416,-0.0499,-0.0502,-0.0504,-0.0474,-0.0474,-0.0474,0,0,-0.042,-0.0425,-0.0416,-0.0406,-0.0384,-0.0385,-0.0365,-0.0341,-0.0321,-0.0296,-0.0317,-0.0327,-0.0332,-0.0383,-0.041,-0.0409,-0.0433,-0.0401,-0.0356,-0.0435,-0.0437,-0.044,-0.0467,-0.0473,-0.0392,-0.0392,-0.0392,0,-0.0432,-0.0421,-0.0418,-0.0396,-0.0381,-0.0365,-0.0339,-0.0337,-0.0308,-0.0299,-0.0266,-0.0307,-0.0333,-0.0395,-0.0375,-0.0401,-0.042,-0.0362,-0.0428,-0.0432,-0.0436,-0.0464,-0.0472,-0.0389,-0.0389,-0.0389,-0.039,0,-0.0426,-0.0406,-0.0397,-0.0365,-0.0353,-0.0326,-0.0315,-0.0285,-0.0243,-0.0242,-0.0246,-0.0284,-0.03,-0.0322,-0.0332,-0.0379,-0.0372,-0.0417,-0.0432,-0.0434,-0.0463,-0.0472,-0.0384,-0.0385,-0.0386,-0.0387,0,0,-0.0467,-0.0404,-0.0401,-0.0362,-0.0319,-0.0309,-0.0283,-0.027,-0.0254,-0.0227,-0.0223,-0.0262,-0.0247,-0.0279,-0.0312,-0.0369,-0.0397,-0.0369,-0.0375,-0.0381,-0.0514,-0.0365,-0.0361,-0.0437,-0.0439,-0.044,-0.0512,0,-0.0454,-0.0412,-0.038,-0.0328,-0.0292,-0.0261,-0.0244,-0.0228,-0.0212,-0.0207,-0.0253,-0.025,-0.0247,-0.0226,-0.0286,-0.0382,-0.042,-0.037,-0.0524,-0.0528,-0.0385,-0.0367,-0.0446,-0.0519,-0.0521,-0.0523,-0.0524,0,-0.0426,-0.041,-0.0356,-0.0281,-0.0264,-0.0221,-0.0182,-0.0161,-0.0175,-0.0154,-0.0162,-0.0183,-0.0236,-0.0237,-0.0379,-0.0331,-0.0388,-0.047,-0.0476,-0.0369,-0.0396,-0.0528,-0.0541,-0.054,-0.0539,-0.0537,-0.0536,0,-0.0434,-0.0367,-0.0324,-0.0301,-0.0241,-0.0187,-0.014,-0.0126,-0.0121,-0.0099,-0.0102,-0.0157,-0.018,-0.0276,-0.0378,-0.0361,-0.0559,-0.058,-0.0513,-0.0503,-0.0653,-0.0649,-0.0684,-0.0683,-0.0683,-0.0683,-0.0683,0,-0.0406,-0.0354,-0.0305,-0.029,-0.0221,-0.0154,-0.0095,-0.0058,-0.0046,-0.0067,-0.0049,-0.0099,-0.0186,-0.03,-0.0385,-0.0454,-0.0559,-0.0485,-0.0511,-0.0615,-0.0607,-0.0657,-0.0653,-0.0686,-0.0685,-0.0685,-0.0684,0,-0.0356,-0.0345,-0.0296,-0.0249,-0.0211,-0.0145,-0.0052,-0.003,0.0003,-0.0029,-0.0008,-0.0064,-0.0123,-0.0239,-0.0411,-0.0445,-0.0553,-0.0564,-0.0633,-0.0666,-0.0435,-0.0427,-0.0454,-0.0449,-0.0445,-0.0442,-0.0439,0,-0.0257,-0.0251,-0.0276,-0.0251,-0.0196,-0.0101,-0.0046,0.0008,-0.0003,-0.0036,-0.0082,-0.0095,-0.0129,-0.0237,-0.0354,-0.0445,-0.0465,-0.0513,-0.0469,-0.0388,-0.0412,-0.041,-0.0407,-0.0433,-0.0432,-0.0431,-0.043,0,-0.0091,-0.0163,-0.0189,-0.0194,-0.0134,-0.0087,-0.0015,-0.0032,-0.0014,-0.0048,-0.0055,-0.0048,-0.0109,-0.0158,-0.0202,-0.0313,-0.0473,-0.0471,-0.048,-0.0438,-0.0363,-0.039,-0.0392,-0.0416,-0.0418,-0.0419,-0.042,0,0.004,0.0016,-0.0078,-0.0075,-0.0039,-0.0007,-0.0015,0.0017,0.0026,-0.0029,-0.0059,-0.0068,-0.0106,-0.0097,-0.0202,-0.0199,-0.0184,-0.0212,-0.0234,-0.025,-0.0149,-0.0022,0.0025,0,0,0,0,0,0.0202,0.0128,0.0105,0.0052,0.0046,0.0074,0.0049,0.001,-0.0056,-0.0021,-0.0006,-0.0028,-0.0007,-0.0055,-0.0005,-0.0146,-0.0224,-0.0096,-0.0277,-0.0339,-0.0355,-0.0256,0,0,0,0,0,0,0.0283,0.0238,0.013,0.0183,0.0172,0.019,0.0177,0.0094,0.0099,0.0035,0.0052,0.0016,0.002,0.0022,0.0024,0.0007,-0.0098,-0.0118,-0.0117,-0.033,-0.0345,-0.0358,-0.0261,0,0,0,0,0]},{"header":{"parameterUnit":"m.s-1","parameterCategory":2,"la1":30.2991,"la2":30.254,"lo1":-89.0895,"lo2":-89.0444,"dy":0.0017,"dx":0.0017,"nx":28,"ny":28,"refTime":"2024-08-06T03:00:00:Z","depth":"4","parameterNumber":3,"parameterNumberName":"V-component_of_CURRENTS"},"data":[0,0,0,0,0,0,0,0,0,0,0,0,0,0,0,0,0,0,0,0,0,0,0,0,0,0,0,0,0,0,0,0,0,0,0,0,0,0,0,0,0,0,0,0,0,0,0,0,0,0,0,0,0,0,0,0,0,0,0.0471,0.0471,0,0.0415,0.0414,0.0413,0.0389,0.039,0.039,0.0391,0.026,0.0256,0.0251,0,0,0,0,0,0,0,0,0,0,0,0,0,0.0418,0.0419,0.0471,0.0471,0.0471,0.0415,0.0414,0.0412,0.0389,0.039,0.0391,0.0392,0.0261,0.0256,0.0251,0,0,0,0,0,0,0,0,0,0,0,0,0,0.0402,0.0419,0.0471,0.0458,0.0457,0.0416,0.0414,0.0412,0.0388,0.039,0.0391,0.0392,0.0263,0.0257,0.025,0.0187,0,0,0.0231,0.0228,0,0,0,0,0,0,0,0,0.0403,0.0403,0.046,0.0459,0.0458,0.0417,0.0347,0.0336,0.0388,0.0406,0.0391,0.0393,0.0309,0.0299,0.0276,0.0181,0.0175,0.023,0.0227,0.0224,0.0222,0,0,0,0,0,0,0,0.0405,0.0405,0.0441,0.046,0.0458,0.0408,0.0407,0.0344,0.0344,0.0405,0.0405,0.041,0.0307,0.0283,0.0273,0.0173,0.0231,0.0225,0.0221,0.0218,0.0007,0.0005,0,0,0,0,0,0,0.0433,0.0407,0.0443,0.044,0.0441,0.0409,0.0408,0.0422,0.0347,0.0339,0.041,0.041,0.0293,0.028,0.0268,0.018,0.0224,0.0218,0.0214,0.0009,0.0007,0.0005,0,0,0,0,0,0,0.0432,0.0437,0.0445,0.0427,0.0426,0.0411,0.0425,0.0421,0.0402,0.0353,0.0342,0.0397,0.0293,0.0277,0.0193,0.0175,0.0215,0.0209,0.0011,0.0008,0.0006,0.0009,0,0,0,0,0,0,0.0431,0.0437,0.047,0.043,0.0428,0.0416,0.0425,0.0419,0.0407,0.0406,0.0338,0.0327,0.0293,0.0203,0.0187,0.0167,0.0204,0.0013,0.001,0.0006,0.0011,0.0007,0.0003,0,0,0,0,0,0.0429,0.0451,0.0472,0.0477,0.047,0.0416,0.0408,0.0396,0.0405,0.0384,0.0332,0.033,0.0171,0.0195,0.0177,0.0156,0.0015,0.0011,0.0007,0.0013,0.0008,0.0003,0,0,0,0,0,0,0.0448,0.0451,0.0472,0.0499,0.0467,0.0415,0.0415,0.0395,0.0338,0.0342,0.0292,0.0274,0.0196,0.0168,0.0196,0.0084,0.0098,0.009,0.0109,0.0103,0.0099,0.0119,0.0199,0,0,0,0,0,0.0472,0.0494,0.0471,0.0496,0.0486,0.0452,0.0438,0.0415,0.036,0.0339,0.0285,0.0228,0.0162,0.0129,0.0065,-0.0004,0.0,-0.0026,-0.003,-0.0034,-0.0032,-0.0058,-0.0063,-0.0009,-0.0009,-0.0009,0,0,0.0492,0.0498,0.0514,0.0503,0.0487,0.0444,0.0444,0.0413,0.0367,0.033,0.0253,0.0205,0.0138,0.006,0.0025,0.0037,-0.0043,-0.0039,-0.0041,-0.0037,-0.0063,-0.0067,-0.0072,-0.0012,-0.0011,-0.0011,0,0,0.0505,0.0542,0.0549,0.0515,0.049,0.0453,0.0444,0.0381,0.0352,0.027,0.0232,0.0169,0.0072,0.0016,-0.0021,-0.009,-0.0069,-0.01,-0.0102,-0.0127,-0.0131,-0.0135,-0.0109,-0.011,-0.0095,-0.0095,-0.0095,0,0.0537,0.0539,0.0536,0.0509,0.0488,0.0455,0.0417,0.0367,0.0278,0.0242,0.0248,0.0098,0.005,-0.0051,-0.0065,-0.0098,-0.0085,-0.0073,-0.0129,-0.0133,-0.0136,-0.011,-0.0111,-0.0096,-0.0096,-0.0096,-0.0096,0,0.0517,0.0527,0.052,0.0486,0.0449,0.0413,0.0346,0.0296,0.0265,0.0213,0.0118,0.0047,-0.0028,-0.0059,-0.008,-0.0141,-0.0113,-0.0132,-0.0106,-0.0141,-0.0111,-0.0113,-0.0096,-0.0096,-0.0096,-0.0096,0,0,0.056,0.0524,0.0528,0.0511,0.0434,0.04,0.032,0.0239,0.0196,0.0118,0.0055,-0.0048,-0.0057,-0.01,-0.0137,-0.0163,-0.0165,-0.0144,-0.0146,-0.0099,-0.0174,-0.0168,-0.0168,-0.0183,-0.0184,-0.0185,-0.0132,0,0.0551,0.0537,0.0496,0.0447,0.0417,0.0352,0.0285,0.0203,0.0139,0.0064,-0.0006,-0.0065,-0.0082,-0.0092,-0.0132,-0.0176,-0.0173,-0.0175,-0.0165,-0.0164,-0.014,-0.0173,-0.0188,-0.0133,-0.0133,-0.0134,-0.0134,0,0.0526,0.0521,0.0514,0.0439,0.0423,0.0402,0.0309,0.0243,0.0125,0.0076,0.0001,-0.0061,-0.0129,-0.0116,-0.0183,-0.0176,-0.0159,-0.0177,-0.0176,-0.0174,-0.0163,-0.0102,-0.0136,-0.0136,-0.0136,-0.0135,-0.0135,0,0.0557,0.0514,0.0533,0.0508,0.0427,0.0429,0.0399,0.0286,0.0225,0.0132,0.0076,-0.0033,-0.0065,-0.0098,-0.0131,-0.0147,-0.0177,-0.0208,-0.0181,-0.0178,-0.0195,-0.0192,-0.0216,-0.0216,-0.0216,-0.0216,-0.0216,0,0.0525,0.0528,0.0586,0.0585,0.0585,0.0522,0.0505,0.0432,0.0338,0.023,0.0143,0.0035,-0.0058,-0.0115,-0.0125,-0.0151,-0.016,-0.0181,-0.0178,-0.0192,-0.019,-0.0193,-0.0191,-0.0214,-0.0214,-0.0215,-0.0215,0,0.05,0.0555,0.0572,0.059,0.061,0.0632,0.0608,0.0555,0.0487,0.0347,0.0324,0.0116,0.0016,-0.0046,-0.0111,-0.0134,-0.0154,-0.0135,-0.01,-0.0096,-0.0136,-0.0135,-0.0142,-0.0142,-0.0141,-0.0141,-0.0141,0,0.0478,0.0504,0.0614,0.0663,0.0694,0.0736,0.0727,0.0664,0.0554,0.0358,0.0243,0.0139,-0.0002,-0.0049,-0.0124,-0.012,-0.012,-0.0094,-0.0173,-0.0139,-0.0135,-0.0134,-0.0134,-0.014,-0.014,-0.014,-0.014,0,0.0402,0.0504,0.0527,0.0641,0.0712,0.0729,0.0702,0.0643,0.0483,0.0417,0.0199,0.0117,-0.0006,-0.0091,-0.0049,-0.0067,-0.0117,-0.0092,-0.0094,-0.0168,-0.0137,-0.0133,-0.0133,-0.0139,-0.0139,-0.0139,-0.014,0,0.0381,0.0403,0.0494,0.058,0.0657,0.0677,0.0691,0.0564,0.049,0.0245,0.0178,0.0064,-0.0026,-0.0063,-0.0057,-0.0048,-0.0088,-0.0084,-0.0088,-0.0089,-0.0109,-0.0063,-0.0042,0,0,0,0,0,0.0333,0.0358,0.0411,0.051,0.0573,0.0628,0.0592,0.0567,0.0424,0.0283,0.0232,0.0118,0.0047,-0.0013,-0.0002,-0.0076,-0.0084,-0.0067,-0.0079,-0.0134,-0.0135,-0.017,0,0,0,0,0,0,0.0316,0.0347,0.0376,0.0419,0.0475,0.0517,0.053,0.0458,0.0353,0.0231,0.0205,0.013,0.0079,0.0065,0.0004,-0.001,-0.0016,-0.0116,-0.0116,-0.0133,-0.0134,-0.0135,-0.0172,0,0,0,0,0]}]]